Location: Joplin, MO
(37.0842°N, 94.5133°W)
Time: 21:27:26
(UTC+02:00)

Transit 2A Rocket - Pass Details

Date: 31 March 2023
Orbit: 584 x 914 km, 66.7° (Epoch: 06 June)

Event Time Altitude Azimuth Distance (km) Brightness Sun altitude
Rises 17:39:56 0° 202° (SSW) 3,187 8.3 40.4°
Reaches altitude 10° 17:42:13 10° 200° (SSW) 2,316 7.7 40.8°
Maximum altitude 17:47:34 77° 115° (ESE) 851 6.3 41.7°
Drops below altitude 10° 17:53:26 10° 31° (NNE) 2,530 7.8 42.7°
Sets 17:56:01 0° 30° (NNE) 3,504 8.4 43.1°
